Simultaneous Nadir Overpasses (SNOs) Predictions

Prediction of SNOs between GOES-17 and TERRA Satellite Orbit:

Table of predicted SNOs for the next 14.0 days since TLE Epoch: 6/8/2024
Index Date Time (GOES-17) GOES-17 Lat,Lon TERRA Lat,Lon Distance(km) Time Diff (sec)
1 06/09/2024 04:38:20 0.01,-104.70 0.33,-103.10 181.98 80
2 06/09/2024 17:00:55 -0.02,-104.71 0.67,-107.94 367.45 80
3 06/11/2024 16:43:32 -0.03,-104.71 -0.26,-103.76 109.05 80
4 06/12/2024 05:03:35 0.03,-104.70 -0.82,-108.63 446.45 80
5 06/14/2024 04:43:31 0.04,-104.71 0.09,-104.43 30.97 80
6 06/16/2024 16:46:01 -0.04,-104.72 0.01,-105.08 40.37 80
7 06/18/2024 16:31:15 -0.04,-104.73 -0.85,-100.87 437.62 80
8 06/19/2024 04:51:17 0.04,-104.72 -0.18,-105.75 117.41 80
9 06/21/2024 04:31:12 0.04,-104.71 0.72,-101.55 360.27 80
10 06/21/2024 16:53:45 -0.03,-104.72 0.33,-106.38 189.06 80
